Weather History for Beaufort, SC

Change the Weather History Date:

Sunday, February 9, 2014

  Actual Average (KNBC) Record (KNBC)
Temperature  
Mean Temperature 50 °F -  
Max Temperature 64 °F 58 °F 64 °F (2014)
Min Temperature 37 °F 37 °F 35 °F (2014)
Degree Days  
Heating Degree Days 14    
Moisture  
Dew Point 42 °F    
Average Humidity 80    
Maximum Humidity 100    
Minimum Humidity 48    
Precipitation  
Precipitation 0.01 in - - ()
Sea Level Pressure  
Sea Level Pressure 30.13 in    
Wind  
Wind Speed 1 mph (SSW)    
Max Wind Speed 8 mph    
Max Gust Speed -    
Visibility 8 miles    
Events      
Averages and records for this station are not official NWS values.
T = Trace of Precipitation, MM = Missing Value Source: NWS Daily Summary

Daily Weather History Graph

Daily Weather History Graph

Search for Another Location

Airport:

Trip Planner

Search our weather history database for the weather conditions in past years. The results will help you decide how hot, cold, wet, or windy it might be!

Date:

Astronomy

Feb. 09, 2014 Rise Set
Actual Time 7:10 AM EST 6:03 PM EST
Civil Twilight 6:45 AM EST 6:28 PM EST
Nautical Twilight 6:16 AM EST 6:57 PM EST
Astronomical Twilight 5:47 AM EST 7:26 PM EST
Moon 1:47 PM EST (2/9) 3:08 AM EST (2/9)
Length of Visible Light 11h 43m
Length of Day
10h 52m
Waxing Gibbous, 77% of the Moon is Illuminated
Feb 9
Waxing Gibbous
Feb 14
Full
Feb 22
Last Quarter
Mar 1
New
Mar 8
First Quarter

Hourly Weather History & Observations

Time (EST) Temp. Windchill Dew Point Humidity Pressure Visibility Wind Dir Wind Speed Gust Speed Precip Events Conditions
12:15 AM 41.0 °F - 41.0 °F 100% 30.18 in 7.0 mi Calm Calm - N/A   Clear
12:35 AM 39.2 °F - 39.2 °F 100% 30.17 in 3.0 mi Calm Calm - N/A   Clear
12:55 AM 39.2 °F - 39.2 °F 100% 30.16 in 7.0 mi Calm Calm - N/A   Clear
1:15 AM 39.2 °F - 39.2 °F 100% 30.16 in 10.0 mi Calm Calm - N/A   Clear
1:35 AM 41.0 °F - 41.0 °F 100% 30.16 in 7.0 mi Calm Calm - N/A   Clear
1:55 AM 39.2 °F - 39.2 °F 100% 30.16 in 3.0 mi Calm Calm - N/A   Clear
2:15 AM 39.2 °F - 39.2 °F 100% 30.15 in 3.0 mi Calm Calm - N/A   Clear
2:35 AM 39.2 °F - 39.2 °F 100% 30.15 in 5.0 mi Calm Calm - N/A   Clear
2:55 AM 39.2 °F - 39.2 °F 100% 30.13 in 2.0 mi Calm Calm - N/A   Clear
3:15 AM 39.2 °F - 39.2 °F 100% 30.13 in 3.0 mi Calm Calm - N/A   Clear
3:35 AM 37.4 °F - 37.4 °F 100% 30.13 in 5.0 mi Calm Calm - N/A   Clear
3:55 AM 37.4 °F - 37.4 °F 100% 30.13 in 3.0 mi Calm Calm - N/A   Clear
4:15 AM 39.2 °F - 39.2 °F 100% 30.13 in 2.5 mi Calm Calm - N/A   Clear
4:35 AM 37.4 °F - 37.4 °F 100% 30.13 in 2.0 mi Calm Calm - N/A   Clear
4:55 AM 39.2 °F - 39.2 °F 100% 30.13 in 2.0 mi Calm Calm - N/A   Clear
5:15 AM 39.2 °F - 39.2 °F 100% 30.13 in 0.8 mi Calm Calm - N/A   Unknown
5:35 AM 39.2 °F - 39.2 °F 100% 30.13 in 1.0 mi Calm Calm - N/A   Mist
5:55 AM 41.0 °F - 41.0 °F 100% 30.14 in 3.0 mi Calm Calm - N/A   Clear
6:15 AM 41.0 °F - 41.0 °F 100% 30.15 in 4.0 mi Calm Calm - N/A   Clear
6:35 AM 41.0 °F - 41.0 °F 100% 30.16 in 4.0 mi Calm Calm - N/A   Clear
6:55 AM 41.0 °F - 41.0 °F 100% 30.17 in 3.0 mi Calm Calm - N/A   Clear
7:15 AM 41.0 °F - 41.0 °F 100% 30.17 in 2.5 mi Calm Calm - N/A   Scattered Clouds
7:35 AM 41.0 °F - 41.0 °F 100% 30.17 in 0.2 mi Calm Calm - N/A   Unknown
7:55 AM 41.0 °F - 41.0 °F 100% 30.17 in 0.2 mi Calm Calm - N/A   Unknown
8:15 AM 42.8 °F - 42.8 °F 100% 30.19 in 0.5 mi Calm Calm - N/A   Unknown
8:35 AM 44.6 °F - 44.6 °F 100% 30.19 in 4.0 mi Calm Calm - N/A   Scattered Clouds
8:55 AM 44.6 °F - 44.6 °F 100% 30.20 in 7.0 mi Calm Calm - N/A   Clear
9:15 AM 46.4 °F - 46.4 °F 100% 30.20 in 7.0 mi Calm Calm - N/A   Clear
9:35 AM 46.4 °F - 46.4 °F 100% 30.20 in 10.0 mi Calm Calm - N/A   Clear
9:55 AM 50.0 °F - 46.4 °F 87% 30.20 in 10.0 mi Calm Calm - N/A   Clear
10:15 AM 51.8 °F - 44.6 °F 76% 30.20 in 10.0 mi Calm Calm - N/A   Clear
10:35 AM 53.6 °F - 46.4 °F 77% 30.20 in 10.0 mi Calm Calm - N/A   Mostly Cloudy
10:55 AM 53.6 °F - 46.4 °F 77% 30.20 in 10.0 mi Calm Calm - N/A   Scattered Clouds
11:15 AM 55.4 °F - 44.6 °F 67% 30.19 in 10.0 mi Calm Calm - N/A   Mostly Cloudy
11:35 AM 57.2 °F - 44.6 °F 63% 30.17 in 10.0 mi Calm Calm - N/A   Mostly Cloudy
11:55 AM 59.0 °F - 44.6 °F 59% 30.17 in 10.0 mi WSW 5.8 mph - N/A   Mostly Cloudy
12:15 PM 59.0 °F - 44.6 °F 59% 30.15 in 10.0 mi WSW 3.5 mph - N/A   Scattered Clouds
12:35 PM 60.8 °F - 44.6 °F 55% 30.14 in 10.0 mi South 4.6 mph - N/A   Clear
12:55 PM 62.6 °F - 46.4 °F 55% 30.14 in 10.0 mi WSW 4.6 mph - N/A   Clear
1:15 PM 60.8 °F - 46.4 °F 59% 30.12 in 10.0 mi SW 6.9 mph - N/A   Clear
1:35 PM 60.8 °F - 44.6 °F 55% 30.11 in 10.0 mi South 5.8 mph - N/A   Clear
1:55 PM 62.6 °F - 42.8 °F 48% 30.09 in 10.0 mi SSW 4.6 mph - N/A   Clear
2:15 PM 64.4 °F - 44.6 °F 49% 30.09 in 10.0 mi WSW 6.9 mph - N/A   Clear
2:35 PM 62.6 °F - 44.6 °F 52% 30.08 in 10.0 mi SSW 4.6 mph - N/A   Clear
2:55 PM 62.6 °F - 44.6 °F 52% 30.06 in 10.0 mi SSE 4.6 mph - N/A   Clear
3:15 PM 62.6 °F - 44.6 °F 52% 30.05 in 10.0 mi SSE 5.8 mph - N/A   Clear
3:35 PM 62.6 °F - 44.6 °F 52% 30.05 in 10.0 mi South 5.8 mph - N/A   Clear
3:55 PM 60.8 °F - 42.8 °F 52% 30.05 in 10.0 mi SSE 6.9 mph - N/A   Clear
4:15 PM 60.8 °F - 42.8 °F 52% 30.04 in 10.0 mi South 8.1 mph - N/A   Clear
4:35 PM 59.0 °F - 41.0 °F 51% 30.05 in 10.0 mi SSE 6.9 mph - N/A   Clear
4:55 PM 59.0 °F - 41.0 °F 51% 30.05 in 10.0 mi South 6.9 mph - N/A   Clear
5:15 PM 57.2 °F - 41.0 °F 55% 30.05 in 10.0 mi SSE 5.8 mph - N/A   Clear
5:35 PM 55.4 °F - 41.0 °F 58% 30.05 in 10.0 mi South 3.5 mph - N/A   Clear
5:55 PM 55.4 °F - 41.0 °F 58% 30.05 in 10.0 mi South 3.5 mph - N/A   Clear
6:15 PM 53.6 °F - 41.0 °F 62% 30.06 in 10.0 mi South 3.5 mph - N/A   Clear
6:35 PM 51.8 °F - 41.0 °F 67% 30.07 in 10.0 mi South 3.5 mph - N/A   Clear
6:55 PM 51.8 °F - 41.0 °F 67% 30.07 in 10.0 mi Calm Calm - N/A   Clear
7:15 PM 50.0 °F - 42.8 °F 76% 30.08 in 10.0 mi South 4.6 mph - N/A   Clear
7:35 PM 51.8 °F - 42.8 °F 71% 30.09 in 10.0 mi SSW 3.5 mph - N/A   Clear
7:55 PM 51.8 °F - 42.8 °F 71% 30.10 in 10.0 mi SSW 4.6 mph - N/A   Clear
8:15 PM 51.8 °F - 42.8 °F 71% 30.10 in 10.0 mi SSW 3.5 mph - N/A   Clear
8:35 PM 51.8 °F - 42.8 °F 71% 30.11 in 10.0 mi SSW 3.5 mph - N/A   Clear
8:55 PM 50.0 °F - 42.8 °F 76% 30.11 in 10.0 mi SSW 4.6 mph - N/A   Clear
9:15 PM 50.0 °F - 42.8 °F 76% 30.11 in 10.0 mi SSW 3.5 mph - N/A   Clear
9:35 PM 48.2 °F - 42.8 °F 82% 30.12 in 10.0 mi SW 3.5 mph - 0.01 in   Clear
9:55 PM 46.4 °F 44.3 °F 42.8 °F 87% 30.11 in 10.0 mi SSW 4.6 mph - 0.01 in   Clear
10:15 PM 46.4 °F 45.2 °F 42.8 °F 87% 30.11 in 10.0 mi SSW 3.5 mph - N/A   Clear
10:35 PM 46.4 °F 45.2 °F 42.8 °F 87% 30.10 in 10.0 mi South 3.5 mph - N/A   Clear
10:55 PM 44.6 °F 42.2 °F 42.8 °F 93% 30.09 in 10.0 mi SSW 4.6 mph - N/A   Clear
11:15 PM 46.4 °F - 44.6 °F 93% 30.09 in 10.0 mi Calm Calm - N/A   Clear
11:35 PM 44.6 °F - 42.8 °F 93% 30.09 in 10.0 mi Calm Calm - N/A   Clear
11:55 PM 44.6 °F 43.1 °F 42.8 °F 93% 30.09 in 10.0 mi WSW 3.5 mph - N/A   Clear